Location: Pandora
(40.9481°N, 83.9611°W)
Time: 19:45:28
(UTC-04:00)

ISS - Visible Passes

Search period start: 28 September 2021 00:00
Search period end: 08 October 2021 00:00
Orbit: 417 x 422 km, 51.6° (Epoch: 28 September)

Date Brightness Start Highest point End Pass type
(mag) Time Alt. Az. Time Alt. Az. Time Alt. Az.
28 Sep -1.6 21:19:08 10° NNW 21:21:02 20° N 21:21:02 20° N visible
29 Sep -1.7 20:31:57 10° NNW 20:34:22 18° NNE 20:35:31 16° NE visible
29 Sep -0.3 22:08:17 10° NW 22:08:29 11° NW 22:08:29 11° NW visible
30 Sep -1.5 19:44:44 10° NNW 19:46:50 15° N 19:48:55 10° NE visible
30 Sep -2.0 21:21:03 10° NW 21:23:01 29° NNW 21:23:01 29° NNW visible
01 Oct -2.6 20:33:52 10° NW 20:36:54 30° NNE 20:37:37 27° NE visible
02 Oct -2.1 19:46:43 10° NNW 19:49:27 23° NNE 19:52:12 10° ENE visible
02 Oct -2.1 21:23:11 10° WNW 21:25:15 34° WNW 21:25:15 34° WNW visible
03 Oct -3.8 20:35:53 10° NW 20:39:15 72° NNE 20:40:01 49° ESE visible
04 Oct -3.2 19:48:40 10° NW 19:51:56 44° NNE 19:54:53 12° ESE visible
04 Oct -1.4 21:25:54 10° W 21:27:53 20° WSW 21:27:53 20° WSW visible
05 Oct -2.5 20:38:16 10° WNW 20:41:24 37° SW 20:42:53 24° S visible
06 Oct -3.4 19:50:51 10° WNW 19:54:12 65° SW 19:57:32 10° SE visible
07 Oct -0.8 20:41:48 10° WSW 20:43:21 13° SW 20:44:53 10° SSW visible
